DW2174 Weather Reports


time (UTC)temp
C
wind
direction
speed
KPH
gust
KPH
rain 1hr
cm
rain 24hr
cm
rain mn
cm
humidity
%
barometer
mb
20260901124526 2 13 0.0 6.4 0.00 0.03 0.00 79 1007.6
20260901123035 2 15 3.2 6.4 0.00 0.03 0.00 78 1007.4
20260901121525 3 18 0.0 6.4 0.00 0.03 0.00 78 1007.2
20260901120024 2 355 3.2 12.9 0.00 0.03 0.00 79 1007.1
20260901114522 2 9 1.6 4.8 0.00 0.03 0.00 80 1007.1
20260901113023 2 9 1.6 6.4 0.00 0.03 0.00 81 1007.1
20260901111523 2 5 0.0 6.4 0.00 0.03 0.00 81 1007.3
20260901110022 2 5 3.2 6.4 0.00 0.03 0.00 80 1007.3
20260901104527 2 9 3.2 6.4 0.00 0.03 0.00 80 1007.4
20260901103017 3 9 0.0 4.8 0.00 0.03 0.00 79 1007.4
20260901101513 3 9 0.0 6.4 0.00 0.03 0.00 76 1007.3
20260901100009 5 30 1.6 6.4 0.00 0.03 0.00 72 1007.3
20260901094507 6 31 0.0 1.6 0.00 0.03 0.00 69 1007.2
20260901093006 6 31 0.0 1.6 0.00 0.03 0.00 68 1007.3
20260901091504 6 31 0.0 3.2 0.00 0.03 0.00 69 1007.1
20260901090006 6 40 0.0 4.8 0.00 0.03 0.00 71 1006.8
20260901084600 6 40 0.0 8.0 0.00 0.03 0.00 68 1006.7
20260901083055 5 360 1.6 17.7 0.00 0.03 0.00 71 1006.3
20260901081554 5 9 3.2 9.7 0.00 0.03 0.00 73 1006.1
20260901080058 6 350 4.8 14.5 0.00 0.03 0.00 72 1005.9
20260901074551 6 13 4.8 20.9 0.00 0.03 0.03 71 1005.4
20260901073048 6 5 4.8 17.7 0.00 0.03 0.03 69 1005.4
20260901071548 7 24 4.8 17.7 0.00 0.03 0.03 68 1005.3
20260901070047 7 5 3.2 20.9 0.00 0.03 0.03 67 1005.2
20260901064546 7 317 1.6 17.7 0.00 0.03 0.03 68 1005.2
20260901063048 6 360 9.7 19.3 0.00 0.03 0.03 69 1005.3
20260901061546 6 347 3.2 12.9 0.00 0.03 0.03 70 1005.2
20260901060044 6 30 3.2 14.5 0.00 0.03 0.03 70 1004.9
20260901054543 6 329 4.8 14.5 0.00 0.03 0.03 70 1004.7
20260901053107 6 360 3.2 9.7 0.00 0.03 0.03 72 1004.7
20260901051602 7 349 3.2 9.7 0.00 0.03 0.03 72 1004.5
20260901050042 7 355 3.2 12.9 0.00 0.03 0.03 71 1004.7
20260901044541 8 336 1.6 12.9 0.00 0.03 0.03 68 1004.4
20260901043041 8 320 3.2 16.1 0.00 0.03 0.03 64 1004.5
20260901041553 10 325 0.0 19.3 0.00 0.03 0.03 61 1004.4
20260901040041 10 323 4.8 14.5 0.00 0.03 0.03 59 1004.2
20260901034539 10 313 1.6 17.7 0.00 0.03 0.03 57 1004.2
20260901033039 10 306 4.8 17.7 0.00 0.03 0.03 56 1004.0
20260901031552 10 302 6.4 22.5 0.00 0.03 0.03 55 1004.0
20260901030137 10 311 9.7 22.5 0.00 0.03 0.03 53 1003.8
20260901024537 11 342 4.8 22.5 0.00 0.03 0.03 52 1003.8
20260901023037 11 350 9.7 22.5 0.00 0.03 0.03 52 1003.7
20260901021536 11 306 9.7 24.1 0.00 0.03 0.03 52 1003.7
20260901020135 11 5 8.0 22.5 0.00 0.03 0.03 52 1003.6
20260901014543 11 313 8.0 22.5 0.00 0.03 0.03 50 1003.4
20260901013033 11 260 9.7 24.1 0.00 0.03 0.03 50 1003.4
20260901011532 11 343 1.6 25.7 0.00 0.03 0.03 52 1003.3
20260901010032 11 281 9.7 22.5 0.00 0.03 0.03 52 1003.2
20260901004531 11 286 9.7 29.0 0.00 0.03 0.03 49 1003.1
20260901003032 11 355 6.4 32.2 0.00 0.03 0.03 51 1003.0
20260901001536 11 360 9.7 29.0 0.00 0.03 0.03 52 1003.1
20260901000027 10 308 9.7 29.0 0.00 0.03 0.03 56 1002.9
20260831234525 10 311 1.6 20.9 0.00 0.03 0.03 65 1003.2
20260831233023 10 332 3.2 20.9 0.00 0.03 0.03 66 1003.2
20260831231522 9 360 8.0 20.9 0.00 0.03 0.03 64 1003.2
20260831230021 10 10 8.0 29.0 0.00 0.03 0.03 63 1003.3
20260831224520 9 340 12.9 38.6 0.00 0.03 0.03 62 1002.9
20260831223019 8 350 17.7 37.0 0.00 0.03 0.03 64 1002.8
20260831221517 8 5 9.7 20.9 0.00 0.03 0.03 68 1002.6
20260831220017 7 26 11.3 27.4 0.00 0.03 0.03 75 1002.7
20260831214522 8 37 9.7 41.8 0.00 0.03 0.03 64 1002.6
20260831213015 9 319 14.5 27.4 0.00 0.03 0.03 51 1001.9
20260831211517 9 355 11.3 40.2 0.00 0.03 0.03 50 1001.8
20260831210009 8 360 11.3 37.0 0.00 0.03 0.03 50 1001.7
20260831204514 8 249 11.3 37.0 0.00 0.03 0.03 54 1001.8
20260831203004 8 251 9.7 32.2 0.00 0.03 0.03 58 1001.7
20260831201502 8 321 8.0 32.2 0.00 0.03 0.03 62 1001.7
20260831200101 8 308 8.0 30.6 0.00 0.03 0.03 61 1001.5
20260831194604 8 348 9.7 29.0 0.00 0.03 0.03 62 1001.2
20260831193054 8 338 9.7 29.0 0.00 0.03 0.03 61 1001.2
20260831191551 7 333 8.0 32.2 0.00 0.03 0.03 62 1001.4
20260831190048 7 258 12.9 30.6 0.00 0.03 0.03 62 1001.4
20260831184543 7 286 14.5 33.8 0.00 0.03 0.03 61 1001.3
20260831183040 7 326 12.9 32.2 0.00 0.03 0.03 61 1001.2
20260831181537 7 282 14.5 41.8 0.00 0.03 0.03 60 1000.9
20260831180031 7 269 9.7 35.4 0.00 0.03 0.03 64 1000.9
20260831174530 6 265 12.9 33.8 0.00 0.03 0.03 65 1000.9
20260831173025 6 292 11.3 37.0 0.03 0.03 0.03 68 1000.9
20260831171524 6 355 8.0 27.4 0.03 0.03 0.03 71 1001.1
20260831170019 6 315 11.3 35.4 0.03 0.03 0.03 71 1001.4
20260831164518 6 255 9.7 48.3 0.03 0.03 0.03 71 1001.4
20260831163008 6 286 11.3 24.1 0.00 0.00 0.00 73 1001.8
20260831161503 5 281 6.4 20.9 0.00 0.00 0.00 74 1002.1
20260831160104 6 302 9.7 25.7 0.00 0.00 0.00 71 1002.2
20260831154558 6 324 6.4 20.9 0.00 0.00 0.00 72 1002.2
20260831153055 6 296 4.8 29.0 0.00 0.00 0.00 72 1002.4
20260831151557 5 337 9.7 25.7 0.00 0.00 0.00 79 1002.4
20260831150053 5 283 3.2 12.9 0.00 0.00 0.00 85 1002.5
20260831144543 6 278 4.8 17.7 0.00 0.00 0.00 86 1002.7
20260831143041 6 263 8.0 22.5 0.00 0.00 0.00 87 1002.9
20260831141521 6 254 6.4 14.5 0.00 0.00 0.00 88 1003.4
20260831140025 6 273 6.4 17.7 0.00 0.00 0.00 87 1003.5
20260831134524 6 270 12.9 27.4 0.00 0.00 0.00 88 1003.2
20260831133014 6 256 8.0 19.3 0.00 0.00 0.00 94 1003.3
20260831131512 6 242 3.2 17.7 0.00 0.00 0.00 94 1003.7
20260831130008 6 252 1.6 8.0 0.00 0.00 0.00 94 1003.7